ARABSAT-5A

Last updated on Fri Dec 19 2025 00:02:49 GMT+0000 (Coordinated Universal Time)

1 36745U 10032B 25352.56002132 .00000179 00000+0 00000+0 0 9992 2 36745 0.0597 35.8975 0003314 228.9004 54.7533 1.00274366 56839
UTC large
Height (km)
Speed (km/s)
/
Latitude / Longitude
Inclination (degrees)
Orbital Period (minutes)
Azimuth
Elevation
Range (km)
Doppler Factor

Next 0 passes for location: London (51.5072 / 0.1276)

Sorry there are no passes over London.